Weather in Vaymes

Russia / Komi Republic     60˚07′46″N   49˚13′33″E
temp.,
°C
wind,
m/s
gust,
m/s
humid.,
%
clouds,
%
prec.,
mm/h
press.,
hPa
HPBL,
m
16 january, sat
sat1600:00−18˚nne229783 0.0 101524
03:00−19˚ne229954 0.0 101423
06:00−19˚nne379897 0.0 1013154
09:00−18˚ne399699 0.0 1010337
12:00−16˚ne41093100 0.0 1007445
15:00−16˚nne51292100 0.1 1005487
18:00−17˚nne51193100 0.0 1003522
21:00−17˚nne41293100 0.1 1003550
17 january, sun
sun1700:00−16˚nne41092100 0.1 1002610
03:00−18˚nne41094100 0.1 1002523
06:00−22˚n4996100 0.0 1003391
09:00−24˚n3997100 0.1 1005283
12:00−22˚nnw259481 0.0 1008251
15:00−23˚nw239757 0.0 101050
18:00−24˚wnw129719 0.0 101220
21:00−25˚wsw229713 0.0 101228
18 january, mon
mon1800:00−24˚sw379614 0.0 1012133
03:00−22˚sw399428 0.0 1011228
06:00−20˚wsw389692 0.1 1011280
09:00−18˚wsw269796 0.4 1012280
12:00−16˚wsw2495100 0.4 1013316
15:00−17˚wnw1297100 0.7 101422
18:00−21˚n1110083 0.0 101620
21:00−22˚ene1110077 0.1 101720
19 january, tue
tue1900:00−24˚ene1210045 0.0 101920
03:00−25˚ese129932 0.0 101920
06:00−26˚ese129917 0.0 102019
09:00−26˚se129835 0.0 102020
12:00−22˚se13950 0.0 1020144
15:00−23˚se129620 0.0 101920
18:00−23˚se129590 0.0 101925
21:00−23˚sse129395 0.0 101922
20 january, wed
wed2000:00−23˚sse1290100 0.0 101920
03:00−23˚s1288100 0.0 101920
06:00−24˚ssw128599 0.0 101820
09:00−24˚s238499 0.0 101876
12:00−20˚ssw3680100 0.0 1017239
15:00−19˚ssw3984100 0.0 1016284
18:00−18˚sw4995100 0.1 1015300
21:00−18˚sw499599 0.1 1020282